Location: Dal�� Lhota
(48.7500°N, 14.0167°E)
Time: 21:57:38
(UTC+00:00)

Transit 2A - Pass Details

Date: 03 August 2021
Orbit: 594 x 964 km, 66.7° (Epoch: 26 September)

Event Time Altitude Azimuth Distance (km) Brightness Sun altitude
Rises 07:33:15 0° 279° (W) 2,926 8.5 36.4°
Reaches altitude 10° 07:36:31 10° 305° (NW) 2,079 7.9 36.9°
Maximum altitude 07:39:03 14° 338° (NNW) 1,862 7.8 37.3°
Drops below altitude 10° 07:41:41 10° 11° (N) 2,195 8.4 37.7°
Sets 07:45:19 0° 36° (NE) 3,208 9.4 38.3°
